Time,TemperatureF,DewpointF,PressureIn,WindDirection,WindDirectionDegrees,WindSpeedMPH,WindSpeedGustMPH,Humidity,HourlyPrecipIn,Conditions,Clouds,dailyrainin,SoftwareType,DateUTC
2013-02-24 00:01:00,27.0,23.0,29.98,NW,323,2.0,5.0,84,0.00,,,0.08,,2013-02-24 05:01:00,
2013-02-24 00:11:00,27.0,23.0,29.98,NW,323,2.0,5.0,84,0.00,,,0.08,,2013-02-24 05:11:00,
2013-02-24 00:22:00,26.0,22.0,29.98,NW,323,1.0,3.0,84,0.00,,,0.08,,2013-02-24 05:22:00,
2013-02-24 00:32:00,25.0,21.0,29.98,NW,323,1.0,3.0,85,0.00,,,0.08,,2013-02-24 05:32:00,
2013-02-24 00:42:00,25.0,21.0,29.98,NW,323,1.0,3.0,85,0.00,,,0.08,,2013-02-24 05:42:00,
2013-02-24 00:52:00,24.0,20.0,29.98,NW,323,0.0,1.0,85,0.00,,,0.08,,2013-02-24 05:52:00,
2013-02-24 01:01:00,24.0,20.0,29.98,NW,323,0.0,1.0,86,0.00,,,0.08,,2013-02-24 06:01:00,
2013-02-24 01:11:00,24.0,20.0,29.98,NW,323,0.0,1.0,86,0.00,,,0.08,,2013-02-24 06:11:00,
2013-02-24 01:21:00,23.0,20.0,29.98,NW,323,0.0,0.0,88,0.00,,,0.08,,2013-02-24 06:21:00,
2013-02-24 01:31:00,23.0,20.0,29.98,NW,323,0.0,0.0,89,0.00,,,0.08,,2013-02-24 06:31:00,
2013-02-24 01:42:00,23.0,20.0,29.98,NW,323,0.0,0.0,89,0.00,,,0.08,,2013-02-24 06:42:00,
2013-02-24 01:52:00,23.0,20.0,29.99,NW,323,1.0,2.0,88,0.00,,,0.08,,2013-02-24 06:52:00,
2013-02-24 02:01:00,22.0,19.0,29.99,NW,323,0.0,0.0,89,0.00,,,0.08,,2013-02-24 07:01:00,
2013-02-24 02:12:00,22.0,19.0,29.99,NW,323,0.0,0.0,89,0.00,,,0.08,,2013-02-24 07:12:00,
2013-02-24 02:21:00,22.0,19.0,29.99,NW,323,0.0,0.0,89,0.00,,,0.08,,2013-02-24 07:21:00,
2013-02-24 02:31:00,21.0,18.0,29.99,NW,323,0.0,0.0,89,0.00,,,0.08,,2013-02-24 07:31:00,
2013-02-24 02:41:00,21.0,18.0,29.99,NW,323,0.0,0.0,89,0.00,,,0.08,,2013-02-24 07:41:00,
2013-02-24 02:52:00,21.0,19.0,29.99,NW,323,0.0,0.0,90,0.00,,,0.08,,2013-02-24 07:52:00,
2013-02-24 03:01:00,20.0,18.0,30.00,NW,323,0.0,0.0,90,0.00,,,0.08,,2013-02-24 08:01:00,
2013-02-24 03:11:00,20.0,18.0,30.00,NW,323,0.0,0.0,90,0.00,,,0.08,,2013-02-24 08:11:00,
2013-02-24 03:22:00,20.0,18.0,30.00,NW,323,0.0,2.0,91,0.00,,,0.08,,2013-02-24 08:22:00,
2013-02-24 03:31:00,20.0,18.0,30.00,NW,323,0.0,2.0,91,0.00,,,0.08,,2013-02-24 08:31:00,
2013-02-24 03:42:00,20.0,18.0,30.00,NW,323,0.0,2.0,91,0.00,,,0.08,,2013-02-24 08:42:00,
2013-02-24 03:54:00,20.0,18.0,30.00,NW,323,0.0,2.0,91,0.00,,,0.08,,2013-02-24 08:54:00,
2013-02-24 04:01:00,20.0,18.0,30.01,NW,323,2.0,4.0,92,0.00,,,0.08,,2013-02-24 09:01:00,
2013-02-24 04:11:00,20.0,18.0,30.01,NW,323,2.0,4.0,92,0.00,,,0.08,,2013-02-24 09:11:00,
2013-02-24 04:21:00,21.0,19.0,30.01,NW,325,2.0,4.0,93,0.00,,,0.08,,2013-02-24 09:21:00,
2013-02-24 04:31:00,21.0,19.0,30.01,NW,325,1.0,4.0,93,0.00,,,0.08,,2013-02-24 09:31:00,
2013-02-24 04:41:00,21.0,19.0,30.01,NW,325,1.0,4.0,93,0.00,,,0.08,,2013-02-24 09:41:00,
2013-02-24 04:52:00,21.0,19.0,30.01,NW,325,0.0,0.0,92,0.00,,,0.08,,2013-02-24 09:52:00,
2013-02-24 05:01:00,20.0,18.0,30.01,NW,325,0.0,1.0,92,0.00,,,0.08,,2013-02-24 10:01:00,
2013-02-24 05:11:00,20.0,18.0,30.01,NW,325,0.0,1.0,92,0.00,,,0.08,,2013-02-24 10:11:00,
2013-02-24 05:21:00,20.0,18.0,30.02,NW,325,2.0,3.0,92,0.00,,,0.08,,2013-02-24 10:21:00,
2013-02-24 05:31:00,20.0,18.0,30.02,NW,325,0.0,1.0,92,0.00,,,0.08,,2013-02-24 10:31:00,
2013-02-24 05:41:00,20.0,18.0,30.02,NW,325,0.0,1.0,92,0.00,,,0.08,,2013-02-24 10:41:00,
2013-02-24 05:52:00,20.0,18.0,30.03,NW,325,0.0,1.0,92,0.00,,,0.08,,2013-02-24 10:52:00,
2013-02-24 06:01:00,20.0,18.0,30.03,NW,325,0.0,2.0,92,0.00,,,0.08,,2013-02-24 11:01:00,
2013-02-24 06:11:00,20.0,18.0,30.03,NW,325,0.0,2.0,92,0.00,,,0.08,,2013-02-24 11:11:00,
2013-02-24 06:21:00,20.0,18.0,30.03,NW,325,0.0,1.0,93,0.00,,,0.08,,2013-02-24 11:21:00,
2013-02-24 06:32:00,20.0,18.0,30.04,NW,325,0.0,0.0,92,0.00,,,0.08,,2013-02-24 11:32:00,
2013-02-24 06:41:00,20.0,18.0,30.04,NW,325,0.0,0.0,92,0.00,,,0.08,,2013-02-24 11:41:00,
2013-02-24 06:53:00,19.0,17.0,30.04,NW,325,0.0,0.0,92,0.00,,,0.08,,2013-02-24 11:53:00,
2013-02-24 07:01:00,19.0,17.0,30.05,NW,325,0.0,2.0,92,0.00,,,0.08,,2013-02-24 12:01:00,
2013-02-24 07:11:00,19.0,17.0,30.05,NW,325,0.0,2.0,92,0.00,,,0.08,,2013-02-24 12:11:00,
2013-02-24 07:21:00,19.0,17.0,30.05,NW,325,0.0,1.0,92,0.00,,,0.08,,2013-02-24 12:21:00,
2013-02-24 07:32:00,19.0,17.0,30.07,NW,325,0.0,3.0,93,0.00,,,0.08,,2013-02-24 12:32:00,
2013-02-24 07:46:00,19.0,17.0,30.07,NW,325,0.0,3.0,93,0.00,,,0.08,,2013-02-24 12:46:00,
2013-02-24 07:55:00,19.0,17.0,30.06,NW,325,0.0,0.0,93,0.00,,,0.08,,2013-02-24 12:55:00,
2013-02-24 08:11:00,19.0,17.0,30.07,NW,325,0.0,0.0,92,0.00,,,0.08,,2013-02-24 13:11:00,
2013-02-24 08:26:00,19.0,17.0,30.07,NW,325,0.0,0.0,92,0.00,,,0.08,,2013-02-24 13:26:00,
2013-02-24 08:33:00,19.0,17.0,30.07,NW,325,0.0,0.0,92,0.00,,,0.08,,2013-02-24 13:33:00,
2013-02-24 08:43:00,19.0,17.0,30.07,NW,325,0.0,0.0,92,0.00,,,0.08,,2013-02-24 13:43:00,
2013-02-24 08:54:00,20.0,18.0,30.08,NW,325,0.0,2.0,93,0.00,,,0.08,,2013-02-24 13:54:00,
2013-02-24 09:13:00,24.0,22.0,30.10,NW,325,1.0,3.0,92,0.00,,,0.08,,2013-02-24 14:13:00,
2013-02-24 09:23:00,24.0,22.0,30.10,NW,325,1.0,3.0,92,0.00,,,0.08,,2013-02-24 14:23:00,
2013-02-24 09:33:00,26.0,23.0,30.10,NW,325,1.0,2.0,89,0.00,,,0.08,,2013-02-24 14:33:00,
2013-02-24 09:44:00,26.0,23.0,30.10,NW,325,1.0,2.0,89,0.00,,,0.08,,2013-02-24 14:44:00,
2013-02-24 09:54:00,27.0,23.0,30.10,NW,325,1.0,4.0,85,0.00,,,0.08,,2013-02-24 14:54:00,
2013-02-24 10:02:00,29.0,25.0,30.11,NW,325,0.0,3.0,83,0.00,,,0.08,,2013-02-24 15:02:00,
2013-02-24 10:13:00,30.0,25.0,30.11,NW,325,0.0,4.0,81,0.00,,,0.08,,2013-02-24 15:13:00,
2013-02-24 10:22:00,30.0,25.0,30.11,NW,325,0.0,4.0,81,0.00,,,0.08,,2013-02-24 15:22:00,
2013-02-24 10:32:00,31.0,25.0,30.11,NW,325,1.0,4.0,78,0.01,,,0.09,,2013-02-24 15:32:00,
2013-02-24 10:42:00,31.0,25.0,30.11,NW,325,1.0,4.0,78,0.01,,,0.09,,2013-02-24 15:42:00,
2013-02-24 10:53:00,31.0,25.0,30.11,NW,315,1.0,5.0,78,0.01,,,0.09,,2013-02-24 15:53:00,
2013-02-24 11:01:00,32.0,26.0,30.11,NW,307,3.0,5.0,78,0.01,,,0.09,,2013-02-24 16:01:00,
2013-02-24 11:11:00,34.0,27.0,30.12,NNW,344,1.0,4.0,76,0.01,,,0.09,,2013-02-24 16:11:00,
2013-02-24 11:21:00,34.0,27.0,30.12,NNW,344,1.0,4.0,76,0.01,,,0.09,,2013-02-24 16:21:00,
2013-02-24 11:32:00,35.0,27.0,30.12,NNW,338,2.0,4.0,73,0.01,,,0.09,,2013-02-24 16:32:00,
2013-02-24 11:41:00,35.0,27.0,30.12,NNW,338,2.0,4.0,73,0.01,,,0.09,,2013-02-24 16:41:00,
2013-02-24 11:52:00,35.0,27.0,30.13,NNW,329,2.0,5.0,72,0.01,,,0.09,,2013-02-24 16:52:00,
2013-02-24 12:01:00,35.0,27.0,30.12,NW,321,3.0,5.0,71,0.01,,,0.09,,2013-02-24 17:01:00,
2013-02-24 12:11:00,35.0,27.0,30.12,NW,321,3.0,5.0,71,0.01,,,0.09,,2013-02-24 17:11:00,
2013-02-24 12:21:00,35.0,26.0,30.12,NW,323,1.0,6.0,70,0.02,,,0.10,,2013-02-24 17:21:00,
2013-02-24 12:32:00,36.0,28.0,30.12,NW,325,2.0,8.0,72,0.01,,,0.09,,2013-02-24 17:32:00,
2013-02-24 12:41:00,36.0,28.0,30.12,NW,325,2.0,8.0,72,0.01,,,0.09,,2013-02-24 17:41:00,
2013-02-24 12:52:00,37.0,28.0,30.12,NNE,16,1.0,5.0,71,0.01,,,0.09,,2013-02-24 17:52:00,
2013-02-24 13:01:00,37.0,27.0,30.12,NNE,19,3.0,6.0,68,0.02,,,0.10,,2013-02-24 18:01:00,
2013-02-24 13:11:00,37.0,27.0,30.12,NNE,19,3.0,6.0,68,0.02,,,0.10,,2013-02-24 18:11:00,
2013-02-24 13:22:00,38.0,28.0,30.12,North,360,2.0,6.0,67,0.01,,,0.10,,2013-02-24 18:22:00,
2013-02-24 13:31:00,38.0,28.0,30.11,NW,325,4.0,9.0,67,0.01,,,0.08,,2013-02-24 18:31:00,
2013-02-24 13:42:00,38.0,28.0,30.11,NW,325,4.0,9.0,67,0.01,,,0.08,,2013-02-24 18:42:00,
2013-02-24 13:52:00,38.0,28.0,30.11,NNE,25,2.0,7.0,66,0.02,,,0.09,,2013-02-24 18:52:00,
2013-02-24 14:01:00,39.0,29.0,30.11,North,360,3.0,6.0,66,0.01,,,0.09,,2013-02-24 19:01:00,
2013-02-24 14:11:00,39.0,29.0,30.11,North,360,3.0,6.0,66,0.01,,,0.09,,2013-02-24 19:11:00,
2013-02-24 14:22:00,39.0,29.0,30.10,NNE,15,3.0,6.0,68,0.02,,,0.10,,2013-02-24 19:22:00,
2013-02-24 14:32:00,39.0,29.0,30.10,NNE,15,2.0,6.0,68,0.02,,,0.08,,2013-02-24 19:32:00,
2013-02-24 14:41:00,39.0,29.0,30.10,NNE,15,2.0,6.0,68,0.02,,,0.08,,2013-02-24 19:41:00,
2013-02-24 14:52:00,39.0,29.0,30.10,NNE,16,2.0,8.0,67,0.01,,,0.08,,2013-02-24 19:52:00,
2013-02-24 15:02:00,39.0,29.0,30.10,NNW,339,2.0,7.0,68,0.01,,,0.08,,2013-02-24 20:02:00,
2013-02-24 15:11:00,39.0,29.0,30.10,NNW,339,2.0,7.0,68,0.01,,,0.08,,2013-02-24 20:11:00,
2013-02-24 15:21:00,39.0,30.0,30.10,NW,320,3.0,5.0,69,0.00,,,0.08,,2013-02-24 20:21:00,
2013-02-24 15:31:00,39.0,29.0,30.10,NNE,20,2.0,5.0,67,0.01,,,0.08,,2013-02-24 20:31:00,
2013-02-24 15:41:00,39.0,29.0,30.10,NNE,20,2.0,5.0,67,0.01,,,0.08,,2013-02-24 20:41:00,
2013-02-24 15:52:00,39.0,29.0,30.10,NW,323,3.0,6.0,68,0.01,,,0.08,,2013-02-24 20:52:00,
2013-02-24 16:01:00,39.0,30.0,30.10,NW,323,3.0,7.0,70,0.01,,,0.08,,2013-02-24 21:01:00,
2013-02-24 16:11:00,39.0,30.0,30.10,NW,323,3.0,7.0,70,0.01,,,0.08,,2013-02-24 21:11:00,
2013-02-24 16:21:00,38.0,28.0,30.11,NW,321,0.0,4.0,68,0.01,,,0.08,,2013-02-24 21:21:00,
2013-02-24 16:32:00,37.0,28.0,30.11,NW,321,1.0,5.0,71,0.00,,,0.07,,2013-02-24 21:32:00,
2013-02-24 16:41:00,37.0,28.0,30.11,NW,321,1.0,5.0,71,0.00,,,0.07,,2013-02-24 21:41:00,
2013-02-24 16:52:00,37.0,28.0,30.11,NW,321,2.0,4.0,71,0.00,,,0.07,,2013-02-24 21:52:00,
2013-02-24 17:01:00,37.0,29.0,30.11,NW,321,1.0,6.0,72,0.00,,,0.07,,2013-02-24 22:01:00,
2013-02-24 17:11:00,37.0,29.0,30.11,NW,321,1.0,6.0,72,0.00,,,0.07,,2013-02-24 22:11:00,
2013-02-24 17:21:00,37.0,29.0,30.11,NW,321,1.0,4.0,72,0.00,,,0.07,,2013-02-24 22:21:00,
2013-02-24 17:31:00,37.0,29.0,30.11,NW,321,2.0,4.0,74,0.00,,,0.07,,2013-02-24 22:31:00,
2013-02-24 17:41:00,37.0,29.0,30.11,NW,321,2.0,4.0,74,0.00,,,0.07,,2013-02-24 22:41:00,
2013-02-24 17:52:00,37.0,29.0,30.11,NW,321,1.0,4.0,74,0.00,,,0.07,,2013-02-24 22:52:00,
2013-02-24 18:02:00,37.0,29.0,30.11,NW,321,0.0,2.0,74,0.00,,,0.07,,2013-02-24 23:02:00,
2013-02-24 18:11:00,37.0,29.0,30.11,NW,321,0.0,2.0,74,0.00,,,0.07,,2013-02-24 23:11:00,
2013-02-24 18:21:00,36.0,29.0,30.11,NW,321,0.0,1.0,74,0.00,,,0.07,,2013-02-24 23:21:00,
2013-02-24 18:31:00,36.0,29.0,30.10,NW,321,0.0,0.0,75,0.00,,,0.07,,2013-02-24 23:31:00,
2013-02-24 18:41:00,36.0,29.0,30.10,NW,321,0.0,0.0,75,0.00,,,0.07,,2013-02-24 23:41:00,
2013-02-24 18:52:00,35.0,28.0,30.11,NW,321,0.0,2.0,76,0.00,,,0.07,,2013-02-24 23:52:00,
2013-02-24 19:01:00,34.0,27.0,30.11,NW,321,0.0,0.0,76,0.00,,,0.07,,2013-02-25 00:01:00,
2013-02-24 19:11:00,34.0,27.0,30.11,NW,321,0.0,0.0,76,0.00,,,0.07,,2013-02-25 00:11:00,
2013-02-24 19:21:00,33.0,27.0,30.11,NW,321,0.0,1.0,78,0.00,,,0.07,,2013-02-25 00:21:00,
2013-02-24 19:31:00,32.0,27.0,30.12,NW,321,0.0,1.0,80,0.00,,,0.07,,2013-02-25 00:31:00,
2013-02-24 19:42:00,32.0,27.0,30.12,NW,321,0.0,1.0,80,0.00,,,0.07,,2013-02-25 00:42:00,
2013-02-24 19:52:00,32.0,27.0,30.12,NW,321,0.0,0.0,81,0.00,,,0.07,,2013-02-25 00:52:00,
2013-02-24 20:01:00,31.0,26.0,30.12,NW,321,1.0,2.0,83,0.00,,,0.07,,2013-02-25 01:01:00,
2013-02-24 20:11:00,31.0,26.0,30.12,NW,321,1.0,2.0,83,0.00,,,0.07,,2013-02-25 01:11:00,
2013-02-24 20:21:00,31.0,26.0,30.13,NW,321,0.0,1.0,83,0.00,,,0.07,,2013-02-25 01:21:00,
2013-02-24 20:31:00,30.0,26.0,30.13,NW,321,0.0,0.0,85,0.00,,,0.07,,2013-02-25 01:31:00,
2013-02-24 20:42:00,30.0,26.0,30.13,NW,321,0.0,0.0,85,0.00,,,0.07,,2013-02-25 01:42:00,
2013-02-24 20:52:00,30.0,26.0,30.13,NW,321,0.0,1.0,86,0.00,,,0.07,,2013-02-25 01:52:00,
2013-02-24 21:01:00,29.0,26.0,30.12,NW,321,0.0,0.0,87,0.00,,,0.07,,2013-02-25 02:01:00,
2013-02-24 21:11:00,29.0,26.0,30.12,NW,321,0.0,0.0,88,0.00,,,0.07,,2013-02-25 02:11:00,
2013-02-24 21:21:00,29.0,26.0,30.12,NW,321,0.0,0.0,88,0.00,,,0.07,,2013-02-25 02:21:00,
2013-02-24 21:31:00,29.0,26.0,30.12,NW,321,0.0,0.0,88,0.00,,,0.07,,2013-02-25 02:31:00,
2013-02-24 21:41:00,29.0,26.0,30.12,NW,321,0.0,0.0,88,0.00,,,0.07,,2013-02-25 02:41:00,
2013-02-24 21:52:00,28.0,25.0,30.12,NW,321,0.0,0.0,89,0.00,,,0.07,,2013-02-25 02:52:00,
2013-02-24 22:01:00,28.0,25.0,30.12,NW,321,0.0,0.0,89,0.00,,,0.07,,2013-02-25 03:01:00,
2013-02-24 22:11:00,28.0,25.0,30.12,NW,321,0.0,0.0,89,0.00,,,0.07,,2013-02-25 03:11:00,
2013-02-24 22:21:00,28.0,25.0,30.13,NW,321,0.0,0.0,90,0.00,,,0.07,,2013-02-25 03:21:00,
2013-02-24 22:31:00,28.0,25.0,30.13,NW,321,0.0,0.0,90,0.00,,,0.07,,2013-02-25 03:31:00,
2013-02-24 22:41:00,28.0,25.0,30.13,NW,321,0.0,0.0,90,0.00,,,0.07,,2013-02-25 03:41:00,
2013-02-24 22:52:00,27.0,24.0,30.13,NW,321,0.0,0.0,90,0.00,,,0.07,,2013-02-25 03:52:00,
2013-02-24 23:01:00,27.0,25.0,30.13,NW,321,0.0,0.0,91,0.00,,,0.07,,2013-02-25 04:01:00,
2013-02-24 23:11:00,27.0,25.0,30.13,NW,321,0.0,0.0,91,0.00,,,0.07,,2013-02-25 04:11:00,
2013-02-24 23:21:00,27.0,25.0,30.14,NW,321,0.0,0.0,91,0.00,,,0.07,,2013-02-25 04:21:00,
2013-02-24 23:31:00,27.0,25.0,30.14,NW,321,0.0,0.0,91,0.00,,,0.07,,2013-02-25 04:31:00,
2013-02-24 23:41:00,27.0,25.0,30.14,NW,321,0.0,0.0,91,0.00,,,0.07,,2013-02-25 04:41:00,
2013-02-24 23:52:00,27.0,25.0,30.13,NW,321,0.0,0.0,92,0.00,,,0.07,,2013-02-25 04:52:00,